Wind_Speed
10 4 6 10 10 12 11 9 7 4 2 5 4 5 7 5 4 5 5 6 7 8 6 7 9 10 14 12 11 15 16 15 16 16 18 20 23 25 26 28 29 27 26 27 28 28 28 30 30 30 28 27 26 25 23 22 24 24 24 25 25 24 24 24 22 19 19 20 20 19 19 19 19 19 19 18 15 14 12 11 10 10 9 8 8 8
8 7 11 11 7 7 8 7 7 9 5 2 3 3 4 5 5 5 6 5 6 6 2 5 10 9 12 11 10 15 15 14 19 19 18 23 24 24 26 27 27 26 25 26 29 30 31 32 32 30 29 28 27 25 22 22 24 25 25 25 24 24 24 24 22 20 20 21 20 20 21 21 20 20 19 18 16 14 13 12 11 10 9 8 9 9
5 9 10 8 4 5 7 8 8 9 9 2 1 3 1 3 3 4 5 3 2 3 1 5 9 7 10 10 8 11 10 10 17 16 16 22 23 21 25 28 27 26 26 27 29 33 35 34 33 31 30 29 27 23 21 23 24 25 26 24 23 23 24 24 21 20 21 21 20 21 22 22 20 20 19 17 15 13 13 13 12 11 10 9 9 10
6 7 6 8 6 6 5 7 10 8 8 6 3 4 2 3 3 3 4 2 3 3 4 7 6 5 8 7 5 8 6 6 11 12 14 21 22 23 28 31 31 32 31 30 31 34 36 35 33 33 31 29 28 24 22 24 25 25 26 24 23 23 22 22 20 20 21 22 22 22 22 21 20 19 18 16 14 14 15 14 13 12 11 11 10 11
6 4 8 11 8 7 5 6 9 8 7 7 5 5 3 3 1 2 3 1 5 3 7 10 5 2 5 6 4 6 7 7 9 10 13 18 21 22 26 31 33 35 35 34 34 34 36 36 34 33 32 30 30 26 22 24 26 26 26 24 22 22 21 21 20 21 22 23 23 23 23 22 21 19 16 15 15 16 16 15 13 13 12 12 12 13
7 6 8 11 9 8 7 5 8 8 6 6 5 6 6 4 1 1 2 2 5 2 4 7 4 2 3 6 7 5 6 8 9 10 11 16 22 22 23 29 32 32 35 37 37 36 36 36 35 33 32 31 32 28 24 25 26 25 25 23 22 22 22 22 22 21 22 24 24 24 24 23 22 19 16 15 16 16 15 14 13 13 13 13 13 13
5 8 6 8 11 11 9 7 7 9 7 4 5 8 8 5 1 2 3 2 3 3 4 2 4 2 3 6 8 7 8 9 9 12 13 16 23 25 24 29 32 31 33 35 35 35 36 35 35 33 32 33 33 29 25 26 26 25 24 23 23 23 23 23 23 22 23 23 23 22 22 21 19 17 15 16 17 15 14 13 13 12 12 11 11 11
7 10 7 7 10 10 10 10 7 9 7 3 5 10 10 6 4 4 3 2 2 3 3 1 2 4 3 6 9 9 9 9 9 12 14 17 23 26 27 30 34 33 33 35 35 35 36 35 34 33 32 32 32 29 27 27 26 25 23 23 24 23 23 24 24 23 23 23 22 21 20 18 17 15 15 16 16 15 14 13 12 11 9 8 9 9
7 11 9 7 8 9 9 8 7 9 6 4 6 10 10 8 7 6 4 1 1 3 3 5 2 3 3 4 7 10 9 10 12 14 15 17 22 26 28 31 33 34 34 35 37 37 37 36 34 32 31 31 31 29 27 27 25 24 23 24 24 23 24 24 24 23 22 21 20 20 19 17 17 16 16 16 15 14 13 12 11 11 9 7 7 7
4 11 12 8 6 7 6 6 7 9 5 4 5 7 6 5 5 6 5 3 2 2 4 8 5 3 2 3 7 10 9 11 12 12 14 17 23 27 30 31 31 33 35 36 37 37 36 36 34 33 32 31 31 29 27 27 25 24 24 24 24 24 24 24 23 23 22 21 20 18 17 17 17 17 16 16 14 13 13 12 12 11 9 6 6 6
4 9 12 8 7 5 5 6 7 9 8 4 4 3 3 3 2 1 1 3 3 3 6 10 9 5 2 4 7 9 12 15 14 10 12 16 23 28 31 32 31 33 36 36 35 34 33 34 35 34 32 31 30 29 27 27 26 24 24 25 24 24 24 24 23 23 22 21 19 17 17 17 17 16 15 14 13 13 13 12 12 11 8 6 5 5
7 7 6 5 9 9 6 6 7 9 9 5 4 4 1 2 3 3 3 3 2 6 6 10 11 6 5 5 6 10 13 16 15 13 15 18 23 29 32 34 34 33 34 36 35 32 32 33 34 33 33 32 30 29 27 27 26 25 25 25 25 25 25 24 23 23 21 19 18 17 17 17 15 14 14 13 13 14 13 12 11 10 8 7 6 6
6 6 3 2 9 12 8 5 5 6 7 6 5 6 4 2 1 1 0 1 3 7 5 10 12 6 6 6 9 16 16 15 17 19 22 24 27 31 32 35 36 33 32 35 36 32 32 35 34 33 34 33 30 29 28 28 27 26 26 26 26 25 25 23 22 22 21 19 18 18 17 16 15 14 14 15 14 14 12 11 10 9 8 8 7 7
5 5 2 3 6 12 11 7 6 7 8 8 7 6 6 5 4 5 4 3 4 6 4 8 11 4 4 5 9 18 20 20 22 24 27 29 31 32 32 34 36 34 31 33 36 35 34 36 35 33 33 32 30 30 29 28 27 26 26 26 26 26 26 24 23 23 22 20 19 17 17 16 16 17 17 16 14 12 10 10 9 7 8 8 8 7
5 4 6 7 4 10 13 9 7 5 6 7 5 5 5 5 5 6 5 4 4 3 2 4 7 4 3 4 7 14 21 23 20 18 20 24 26 27 27 29 34 35 34 33 35 36 36 36 35 33 31 31 32 31 29 28 27 27 27 27 27 28 27 26 25 24 22 20 19 18 18 18 19 18 17 15 12 11 9 8 6 7 8 9 8 7
6 6 6 7 6 8 11 8 7 7 5 5 4 5 5 5 5 3 3 5 3 2 0 2 3 4 4 3 6 6 15 15 12 13 18 20 22 24 24 27 33 35 36 35 34 35 37 36 35 33 31 31 32 31 29 29 29 29 28 28 28 28 27 25 24 22 21 21 20 20 20 20 19 18 16 14 12 11 9 6 5 7 9 9 8 7
6 5 4 6 9 9 9 10 9 8 6 4 5 7 5 4 6 2 2 1 4 3 2 2 3 2 1 4 6 4 11 9 10 14 17 20 23 25 25 28 32 35 36 36 35 35 37 36 35 33 31 31 32 30 28 29 30 31 30 30 28 26 25 24 23 22 22 22 22 21 21 20 18 17 15 14 12 12 10 7 6 8 10 10 9 8
4 3 5 7 10 11 12 13 10 9 7 6 7 7 3 4 3 2 1 1 3 2 3 2 4 2 2 2 2 6 11 10 10 11 14 18 23 25 26 29 32 34 34 34 34 35 36 37 35 34 32 31 31 29 28 29 30 31 30 29 27 24 23 23 23 23 23 23 22 21 20 19 18 16 15 14 13 12 11 9 8 9 11 11 10 8
1 1 6 6 9 8 9 10 7 8 9 6 6 6 5 4 3 1 2 3 2 2 3 2 1 3 4 4 4 9 12 12 12 12 12 15 21 25 27 28 30 31 31 32 34 35 36 37 35 34 34 32 30 29 29 30 31 30 28 26 24 22 22 22 23 23 22 21 20 19 19 18 17 16 15 15 14 13 12 11 10 10 12 12 9 8
1 0 4 4 9 7 5 6 6 9 8 4 5 6 5 5 5 3 3 3 3 3 2 1 2 3 5 5 9 14 16 16 14 14 14 17 24 29 29 29 32 33 32 34 37 36 36 36 34 34 36 35 32 30 31 32 31 29 27 25 24 23 23 23 22 22 20 20 19 18 18 17 17 16 16 15 14 13 13 12 11 11 12 11 9 8
2 1 3 3 5 7 5 6 9 10 9 5 5 6 7 4 3 3 3 2 3 3 3 2 1 5 6 5 11 15 16 17 18 18 16 19 27 31 31 32 34 35 33 35 39 38 36 35 34 35 36 35 33 31 32 33 32 29 27 25 24 23 24 24 22 21 20 19 18 18 18 18 17 17 17 16 15 14 13 13 12 13 13 11 9 7
2 2 1 3 2 7 8 7 8 10 8 7 5 5 7 6 4 3 4 1 2 3 3 4 3 7 6 5 10 14 14 16 20 20 16 20 30 33 34 35 36 36 35 35 39 39 37 37 37 37 37 35 33 33 34 33 31 29 28 26 25 25 25 24 22 21 20 19 19 19 18 18 18 18 17 16 15 15 15 14 14 14 13 11 9 7
4 1 1 3 4 6 7 4 7 9 7 6 6 4 4 5 5 5 5 3 1 1 1 3 3 6 6 5 9 11 12 15 22 21 17 23 32 34 34 35 35 36 35 35 39 40 40 40 38 37 37 35 34 35 37 36 33 30 29 27 26 26 25 23 21 20 20 20 20 19 19 19 18 18 17 17 17 16 15 15 15 14 12 10 8 7
4 2 2 4 4 3 3 1 5 9 8 5 5 4 5 5 6 6 5 4 4 3 3 2 2 5 6 4 3 5 6 10 17 19 18 22 28 31 33 33 34 35 33 34 37 38 40 41 37 36 36 35 34 36 38 38 36 32 29 27 27 27 25 23 21 21 20 20 19 19 18 18 18 18 17 17 17 16 16 16 16 14 12 9 7 7
7 2 1 2 2 3 3 3 3 6 7 5 4 5 6 6 7 4 2 4 4 4 5 5 4 6 6 3 3 5 6 5 8 13 16 19 24 28 30 31 34 34 33 34 35 36 38 38 38 39 38 36 36 38 38 37 36 34 31 30 30 28 25 23 22 21 21 20 19 19 18 18 18 18 17 17 17 16 17 17 16 14 11 8 7 8
6 2 3 3 2 5 6 5 5 6 6 5 5 8 8 7 9 5 2 4 4 3 5 5 5 6 6 2 6 7 7 7 8 12 16 20 25 28 30 32 34 34 34 34 35 36 38 38 39 41 39 38 38 40 39 36 35 34 33 31 29 26 25 24 23 21 20 19 19 18 18 18 17 17 17 17 17 17 18 17 15 13 10 8 8 10
1 2 3 6 6 7 7 6 6 6 8 7 8 10 8 6 8 6 4 6 5 4 4 5 6 4 5 2 7 8 8 8 9 12 17 21 26 29 31 33 34 35 36 36 36 37 39 40 41 42 40 39 38 39 39 37 37 36 33 30 28 26 24 23 22 20 19 19 18 18 18 17 16 16 17 17 18 18 17 16 14 12 10 10 10 11
0 4 5 5 7 9 8 7 5 6 8 8 8 9 6 6 8 7 5 6 6 6 4 7 5 6 7 7 9 10 11 10 9 13 19 24 27 29 29 30 31 33 35 36 37 38 40 41 41 42 41 40 38 39 40 39 38 35 32 29 28 26 24 22 20 20 19 19 18 18 17 16 15 16 17 18 18 18 17 16 14 12 11 11 11 12
2 5 6 4 5 6 5 6 6 7 7 8 10 9 7 7 10 9 7 7 8 8 6 7 9 10 9 9 12 13 13 13 14 18 22 25 28 29 30 30 30 32 34 37 39 41 41 41 41 41 40 40 41 41 41 40 38 35 31 29 27 26 24 22 20 20 20 20 19 18 16 16 16 17 19 19 19 18 17 16 14 12 11 11 12 12
4 5 5 2 3 4 4 4 6 8 7 7 10 10 9 10 10 8 6 6 7 6 5 7 11 10 8 8 10 10 11 14 16 21 24 27 30 31 32 32 32 34 37 40 42 43 43 42 41 41 40 41 43 43 43 42 39 36 32 29 29 27 25 23 21 20 21 21 19 18 16 17 18 20 20 20 19 19 18 16 13 12 11 11 12 11
3 4 3 1 1 4 6 3 5 8 7 7 6 6 8 8 6 5 2 3 5 2 2 7 6 7 6 4 3 7 14 18 17 20 24 28 32 33 32 33 34 36 38 40 41 41 41 40 40 40 41 43 43 43 43 42 39 36 32 30 31 29 26 23 22 21 22 21 20 18 18 18 20 21 21 21 20 19 17 15 13 12 12 13 12 12
2 2 2 3 1 3 5 4 5 7 8 8 4 4 8 6 4 4 3 4 6 5 5 8 3 6 5 3 7 9 14 16 14 18 23 26 32 35 34 34 35 37 38 39 40 40 40 40 41 42 43 43 43 43 42 41 40 36 32 31 32 29 26 24 23 22 22 21 20 20 19 20 22 23 22 21 20 18 16 15 13 13 13 13 13 12
2 2 2 2 2 3 5 1 4 8 8 3 3 6 7 5 2 2 2 1 4 7 7 5 5 6 4 7 8 7 8 10 13 22 27 28 32 35 36 38 39 40 41 41 41 42 42 43 43 44 44 44 43 43 42 40 40 36 32 31 31 28 26 24 24 23 23 22 22 21 21 22 24 24 23 22 20 18 17 15 14 13 13 14 13 12
1 2 1 2 3 3 5 3 3 6 4 5 6 6 7 5 6 5 1 2 1 2 3 3 3 4 6 8 11 11 13 18 25 32 35 35 36 36 36 38 39 40 40 41 42 43 43 42 42 42 43 44 43 43 41 40 39 36 33 32 31 28 27 26 26 26 24 23 23 22 22 24 25 24 23 22 21 19 17 16 15 14 14 14 13 12
1 1 2 2 3 2 3 4 5 5 6 7 6 4 4 6 10 10 4 2 3 3 1 2 6 9 9 10 13 16 21 25 27 30 34 37 40 41 40 39 39 38 38 39 40 41 40 40 41 41 42 43 42 42 41 40 39 37 35 34 32 30 30 30 29 28 26 24 24 24 25 26 26 25 24 23 21 20 18 17 16 15 14 14 13 12
2 1 2 2 1 1 3 4 5 6 6 5 5 3 2 3 6 8 6 5 4 3 0 3 5 9 8 5 6 8 10 12 13 18 26 32 36 40 42 43 42 41 42 43 43 43 43 43 44 44 44 44 42 41 40 39 39 38 37 35 33 32 32 32 31 29 27 25 25 26 28 28 27 26 25 24 23 21 19 18 17 15 14 14 14 13
3 2 3 2 1 3 3 2 1 1 2 3 3 1 3 2 4 6 4 3 4 1 3 4 4 5 6 7 8 10 10 9 5 8 21 29 33 37 39 40 42 43 43 44 44 44 45 44 44 44 44 43 42 41 40 39 39 38 38 36 34 34 34 33 32 30 28 26 26 27 29 29 28 26 26 25 24 22 20 19 18 16 15 15 15 13
3 3 4 3 1 2 4 3 2 3 1 4 6 6 4 3 6 6 6 1 6 3 3 4 3 6 7 8 13 17 14 8 1 8 22 30 33 34 35 35 37 39 40 41 41 41 41 41 41 41 42 42 42 41 40 39 39 39 39 38 36 35 34 35 34 32 30 28 27 27 29 29 28 27 26 25 24 22 21 19 18 17 16 15 15 14
5 2 5 5 2 2 4 3 2 2 3 6 8 8 7 4 3 3 6 0 7 6 2 5 6 6 6 10 16 17 11 4 4 13 25 33 34 36 37 36 36 37 37 39 40 40 41 41 41 40 40 42 43 42 41 40 38 39 39 38 37 36 36 36 36 33 31 29 26 27 29 29 28 27 27 26 24 22 20 19 18 17 17 16 15 15
6 4 4 4 3 3 4 2 1 2 2 4 7 7 5 3 3 6 4 4 8 7 6 3 10 10 10 14 16 11 6 8 9 18 27 34 36 37 38 38 39 39 38 38 39 39 40 41 41 41 41 42 43 42 42 41 39 38 39 39 40 39 38 37 36 34 31 28 26 27 29 30 28 28 27 25 24 22 20 19 19 18 18 17 17 17
4 4 3 2 2 3 3 2 1 3 3 4 6 7 4 4 6 5 5 7 5 4 7 3 9 16 18 19 16 11 15 20 18 18 22 29 34 36 37 38 38 38 38 38 38 38 39 40 41 41 41 42 43 43 43 42 41 39 40 41 40 38 36 36 36 33 30 28 26 27 29 30 29 28 26 25 23 22 20 20 19 19 19 19 19 19
0 2 2 1 1 3 2 3 1 3 3 3 7 9 5 4 2 3 6 5 2 2 4 4 4 15 23 25 22 22 25 25 18 13 13 23 32 36 37 37 37 36 37 37 37 39 40 40 40 40 40 41 43 43 43 43 42 40 39 40 38 37 38 37 34 31 29 28 26 27 29 30 29 28 26 25 23 22 21 21 20 20 20 21 21 21
3 2 1 1 1 2 2 3 2 2 3 5 8 6 4 3 5 6 6 3 1 3 6 4 1 12 22 25 26 27 26 21 16 11 9 18 29 33 35 37 38 38 38 37 37 39 39 39 39 40 40 41 42 43 43 43 43 40 38 36 37 39 39 36 33 31 30 28 27 28 29 31 30 28 26 25 24 23 22 22 22 21 22 23 24 23
2 3 2 3 2 3 1 0 2 5 5 8 5 1 2 3 6 8 7 5 4 6 7 6 3 7 18 22 23 25 23 20 18 15 11 16 26 31 33 36 37 38 38 38 38 38 39 39 39 39 40 41 42 43 42 42 41 41 37 33 34 38 38 34 33 32 29 28 28 28 29 31 31 29 27 25 24 24 24 23 23 23 24 25 26 25
2 3 4 3 2 3 4 5 4 4 5 6 6 6 7 9 11 11 10 9 9 8 8 9 8 3 9 17 22 23 21 18 17 17 15 17 23 28 32 34 35 37 37 37 37 37 38 38 38 38 39 41 41 42 42 40 40 41 38 33 34 37 37 35 35 32 28 29 29 28 30 32 32 29 27 25 25 25 25 25 25 25 26 27 27 26
3 2 2 3 1 0 1 1 1 3 4 6 10 11 12 13 12 11 12 12 11 9 9 9 9 8 3 6 15 21 22 19 16 15 16 17 21 26 30 33 35 36 37 37 37 36 36 37 37 37 39 40 41 41 41 40 40 41 38 34 34 36 36 36 34 31 29 31 30 29 31 33 32 30 27 25 25 26 26 26 27 27 28 28 28 26
2 1 3 3 2 2 1 2 4 4 3 4 9 11 12 13 12 11 11 11 10 8 7 7 7 7 7 4 3 10 16 19 17 16 17 19 22 26 30 32 34 35 35 36 36 35 36 36 37 38 39 39 40 39 39 39 39 39 37 35 35 36 37 36 33 30 31 32 30 30 32 33 32 30 28 26 27 27 26 26 27 28 29 29 28 27
2 3 2 2 2 2 3 5 3 3 3 3 7 10 11 12 11 11 11 10 10 8 5 4 4 4 5 5 4 3 6 10 13 15 17 19 22 25 28 30 31 32 34 34 34 34 35 36 37 37 38 38 38 38 38 38 38 39 40 38 37 37 37 35 32 31 32 32 30 30 32 33 33 31 29 28 28 28 28 28 29 30 29 29 28 27
3 4 1 3 3 2 2 3 0 4 5 4 6 8 9 10 9 9 10 9 9 9 8 4 2 2 3 3 4 5 3 3 7 11 14 17 21 23 25 28 29 31 32 32 32 33 34 35 35 36 36 37 37 37 37 37 38 40 40 39 39 38 36 34 32 32 32 32 31 31 32 33 33 31 30 30 30 29 28 28 29 30 29 27 26 24
1 1 1 4 3 1 3 4 4 4 1 0 5 7 7 7 6 6 7 7 7 9 9 7 4 2 1 2 2 3 4 4 5 8 10 14 17 20 22 25 28 30 30 30 30 31 33 33 34 34 35 35 35 35 35 36 38 39 39 39 40 39 36 33 32 33 33 32 32 32 33 34 34 33 31 31 31 30 29 29 30 29 27 25 23 21
2 2 3 4 4 4 5 7 7 5 3 4 6 7 6 5 4 4 6 6 5 5 6 7 6 4 2 2 3 2 3 4 5 7 9 11 14 17 19 21 23 25 27 28 29 30 32 33 33 33 34 34 35 35 35 35 36 37 38 40 40 38 35 33 33 34 34 34 33 33 33 33 34 34 32 32 32 30 30 31 32 30 26 23 22 21
Wind_Direction
174 172 209 204 205 202 200 192 210 281 36 121 117 143 167 173 226 228 226 230 166 162 210 176 151 157 163 165 162 166 169 167 169 169 167 167 170 172 178 187 191 190 191 191 187 186 186 184 185 186 187 189 189 189 195 199 198 197 196 196 198 202 205 205 204 206 206 208 213 213 207 203 203 205 206 208 210 213 214 214 218 222 225 232 242 252
171 199 224 210 201 189 184 173 202 253 275 78 86 135 160 180 219 236 222 222 176 159 223 156 145 161 168 162 165 165 166 178 180 175 172 170 172 175 178 183 187 187 190 190 186 185 184 184 186 188 189 190 187 188 195 198 197 197 199 200 202 202 203 205 208 209 207 209 213 209 203 202 203 203 206 209 208 212 216 214 218 224 235 247 254 260
197 221 218 186 169 156 166 165 174 228 250 236 134 127 151 215 212 253 254 241 150 132 178 160 145 157 168 161 164 167 166 181 184 182 176 172 173 177 179 181 184 187 190 189 187 185 184 185 188 190 191 190 188 189 194 198 198 199 199 201 200 199 200 204 208 208 205 206 208 207 204 203 203 201 205 209 207 211 218 219 224 234 247 256 262 269
208 226 175 150 179 173 161 167 163 199 240 231 176 141 213 246 166 215 269 3 54 102 147 145 134 146 158 147 147 166 160 152 175 185 179 177 178 179 183 185 186 190 190 188 187 186 186 187 189 192 192 190 189 192 196 199 202 201 200 200 198 198 200 201 202 202 202 202 203 205 205 205 204 203 204 205 206 213 220 226 235 246 254 259 267 275
238 242 155 155 184 185 172 175 166 181 226 228 198 153 188 243 185 199 225 90 44 54 127 120 107 162 159 154 157 161 159 151 162 174 175 182 186 185 188 189 190 193 192 189 187 188 188 188 191 193 193 191 191 195 198 199 203 204 203 201 199 198 197 196 197 197 198 200 200 202 202 201 202 203 203 205 212 218 224 232 242 252 259 265 273 278
254 260 177 161 176 186 190 196 180 181 207 234 214 165 174 211 270 325 238 123 63 29 171 123 108 221 198 183 179 159 166 165 163 175 178 182 189 192 192 192 192 194 196 193 189 188 189 190 192 195 195 195 195 198 199 198 202 204 204 202 198 197 195 195 195 194 197 199 200 201 201 202 202 201 203 209 218 226 232 240 249 258 266 273 277 277
231 250 211 172 178 184 201 216 197 179 179 232 214 168 173 199 194 293 270 152 125 194 211 138 120 179 236 210 188 168 177 177 167 184 190 184 191 196 193 193 193 193 196 196 190 188 189 191 194 195 197 198 198 201 200 198 201 203 203 200 196 196 195 194 194 193 196 198 201 204 206 209 208 206 209 215 221 230 240 248 256 264 273 281 283 278
184 218 229 200 185 182 203 214 198 175 166 228 209 161 168 193 196 237 255 157 171 166 166 226 124 137 219 217 186 173 180 183 179 191 197 191 192 195 195 195 195 195 195 194 192 190 189 192 195 195 197 201 202 202 200 198 199 200 201 198 195 196 195 193 192 193 196 200 201 204 208 210 210 214 222 224 225 232 242 251 260 272 283 290 289 279
162 197 218 202 193 201 205 197 174 161 164 223 189 152 164 186 187 211 227 186 151 111 163 241 195 131 232 220 169 177 190 192 195 200 201 195 191 194 196 197 197 197 196 196 196 194 191 191 192 194 197 202 204 202 200 198 198 198 198 197 196 196 194 192 192 193 196 202 205 206 208 208 207 215 225 230 231 235 243 254 268 283 290 290 281 270
171 196 204 192 203 214 189 167 157 157 185 216 159 126 129 154 170 192 203 179 110 110 205 220 196 148 249 232 169 179 195 200 204 206 203 196 192 195 198 197 197 197 197 200 199 196 194 192 193 195 196 199 202 202 200 197 197 197 197 197 198 196 193 193 192 194 197 201 206 208 209 210 211 217 224 229 233 238 248 261 276 285 283 273 261 252
249 213 207 199 208 201 158 165 163 162 186 188 131 119 85 60 58 105 153 110 105 247 225 200 192 180 226 232 187 182 196 198 200 198 195 195 194 197 199 197 195 195 196 200 198 195 195 195 197 199 198 200 203 202 199 197 196 197 198 198 198 196 194 193 193 195 198 200 204 209 212 215 219 225 230 234 239 247 256 265 276 280 267 241 226 225
269 243 229 216 197 177 156 181 169 160 184 180 133 148 138 342 350 16 15 65 145 244 232 182 181 188 221 235 195 198 209 200 194 192 191 193 194 195 197 197 195 193 195 197 196 193 194 198 202 203 200 201 203 203 200 198 198 199 199 198 197 195 193 194 194 195 198 198 201 208 214 218 225 233 239 242 247 253 260 268 275 273 250 218 206 209
251 250 273 271 203 180 165 181 171 163 184 182 139 135 149 190 226 212 253 102 206 246 232 170 168 186 233 236 196 201 214 206 197 197 192 189 190 192 195 196 195 193 191 192 194 193 193 197 203 203 200 199 202 204 201 198 199 199 198 197 195 194 192 193 192 192 194 196 200 206 211 217 224 232 239 242 246 252 261 270 274 265 237 211 201 202
238 270 244 235 215 186 176 176 182 186 185 183 175 164 168 161 166 191 199 215 232 253 250 168 163 192 255 244 206 201 208 208 204 202 194 189 190 191 192 192 192 193 193 191 192 193 193 195 198 200 198 196 198 203 201 197 197 197 196 196 195 193 190 189 188 189 192 195 199 203 208 215 223 230 236 240 244 251 260 269 266 246 220 204 197 199
201 254 217 203 201 181 186 191 178 162 169 188 171 145 166 169 170 186 191 206 221 249 280 150 157 190 195 233 237 208 205 205 204 199 189 189 193 190 187 187 189 194 196 193 191 193 195 196 196 198 197 194 196 202 201 196 195 195 195 195 194 192 190 190 191 192 193 195 197 202 208 216 224 231 235 237 240 246 254 261 251 224 207 200 198 199
191 246 236 208 213 187 186 192 161 135 161 190 138 140 192 186 153 156 182 181 166 154 93 140 187 222 195 267 302 208 195 192 176 164 168 180 189 184 182 185 189 193 196 195 192 191 194 196 195 197 198 195 197 202 201 195 193 193 194 195 197 197 194 193 195 194 194 197 199 204 212 220 226 230 232 232 234 238 241 244 235 220 208 201 201 202
183 251 271 191 217 217 187 178 177 173 172 166 163 181 198 152 118 104 216 162 106 145 224 181 212 285 278 306 334 140 166 163 145 152 163 173 179 180 185 188 191 193 195 195 192 189 191 192 192 195 198 198 198 200 200 197 194 194 196 197 197 199 196 194 195 195 196 200 204 210 217 224 227 229 230 230 233 236 238 236 228 221 212 205 205 206
162 260 277 175 197 226 198 178 188 191 161 148 194 196 127 95 95 81 210 316 74 157 255 215 188 205 175 250 327 136 156 163 159 159 163 170 176 183 189 191 192 194 193 193 191 188 189 190 189 191 197 200 200 199 198 196 194 196 200 200 198 198 198 196 196 198 200 204 210 216 221 224 225 226 227 226 229 237 242 241 233 222 213 208 207 205
104 288 277 187 179 213 195 174 188 205 185 161 179 179 135 150 196 147 171 206 155 179 255 294 253 221 194 193 175 162 171 177 170 163 168 176 181 186 189 190 191 191 190 190 188 187 187 188 189 191 195 198 199 199 197 194 194 197 200 200 198 200 201 200 200 203 207 210 215 220 223 225 223 221 222 221 225 234 238 241 241 226 212 208 206 204
344 92 278 210 174 171 170 175 186 203 206 165 133 165 173 171 188 195 169 166 181 189 198 270 321 264 231 203 180 180 183 178 170 173 184 187 185 185 186 187 187 187 188 188 187 188 187 188 191 193 193 194 196 200 198 194 194 197 199 197 196 200 203 204 205 209 213 215 218 222 222 222 220 218 220 221 225 232 235 241 244 226 211 207 206 207
319 246 274 270 175 161 189 205 191 192 195 175 155 177 189 174 158 194 194 137 146 167 169 166 231 262 251 200 187 191 185 176 177 183 190 187 184 186 188 187 186 186 186 185 186 189 190 189 190 192 193 191 193 197 196 194 194 197 199 199 199 203 205 207 209 212 215 217 220 223 222 219 218 219 221 222 226 230 235 242 237 219 209 207 207 207
203 221 270 293 189 181 207 204 184 187 176 162 183 202 192 174 131 159 216 228 113 162 183 159 188 257 256 188 188 195 185 181 186 187 186 182 182 185 189 188 186 186 185 184 184 187 188 186 184 187 190 189 192 196 195 195 197 199 201 200 202 206 208 210 212 213 216 218 220 222 222 221 221 221 223 224 227 231 236 236 223 209 206 207 206 199
182 228 303 277 240 214 227 214 174 171 141 140 193 209 175 155 130 146 198 228 186 181 161 126 174 255 260 208 195 194 186 190 191 187 180 180 182 185 186 187 186 186 186 184 182 183 183 183 184 187 188 189 196 198 195 195 198 200 201 202 204 207 208 210 214 215 217 218 219 220 220 222 222 222 223 225 228 231 230 221 209 202 206 207 202 189
185 238 264 277 282 229 241 303 155 157 137 148 210 186 153 177 181 167 169 179 190 190 148 123 227 262 280 270 201 170 168 187 193 191 182 176 179 182 182 183 184 185 185 183 182 182 180 182 187 191 191 192 197 198 194 193 194 196 201 206 207 208 208 211 215 217 219 218 218 219 219 221 222 221 223 223 224 224 216 206 201 200 204 203 196 186
191 208 212 273 337 154 160 89 132 168 165 180 211 186 172 173 168 164 128 141 195 208 162 152 212 248 279 322 99 109 107 137 181 189 182 172 173 177 178 179 182 182 182 180 179 179 179 183 189 191 193 196 198 196 194 193 193 196 201 205 207 208 210 213 217 218 219 219 219 219 219 220 220 219 219 217 215 210 202 200 201 201 199 198 195 187
195 191 147 181 169 170 179 173 181 182 173 185 198 190 187 163 150 160 147 151 217 228 154 157 208 251 292 18 118 126 120 126 150 165 171 172 172 174 175 177 180 181 180 178 178 179 182 186 189 188 191 197 197 195 194 195 197 198 200 202 206 210 212 214 216 218 220 221 219 218 216 215 213 211 209 206 202 198 197 199 202 201 197 194 193 188
202 252 196 187 194 194 191 206 214 173 161 183 187 179 183 163 143 128 127 171 199 174 172 216 204 218 274 187 148 157 154 154 159 158 163 169 172 174 176 176 178 180 182 182 180 181 183 186 188 186 188 195 198 198 198 200 201 200 199 202 207 211 213 215 217 219 220 219 216 213 211 208 205 202 200 197 194 194 198 201 202 203 199 192 187 186
53 271 240 203 217 215 191 195 199 152 156 171 164 163 171 161 146 134 159 193 165 138 217 254 193 182 229 207 178 180 170 165 172 170 168 168 169 172 174 175 177 178 181 183 182 183 184 185 187 187 188 193 198 201 201 201 201 199 200 205 209 211 214 217 220 221 220 216 212 209 207 204 201 198 195 193 193 196 200 201 201 201 199 191 185 185
181 255 232 201 253 255 219 205 174 138 150 157 151 159 166 167 168 171 193 196 152 153 218 226 181 191 218 205 192 190 182 177 175 170 167 165 164 168 170 173 176 177 179 182 185 186 187 188 189 190 193 195 196 200 201 200 200 200 202 208 213 213 216 219 221 221 218 214 211 207 205 203 198 195 194 194 195 199 202 203 202 200 197 191 186 186
180 249 237 210 287 303 293 244 171 137 141 148 152 160 163 172 178 177 195 187 156 171 202 175 181 210 228 208 200 190 171 161 154 155 158 160 163 168 171 174 177 179 182 185 188 190 191 192 193 194 197 197 196 198 200 200 200 201 204 211 214 214 217 221 221 221 218 214 211 207 206 203 196 193 194 195 198 201 204 204 203 199 195 192 190 189
201 248 250 121 320 310 334 355 140 140 136 133 132 136 142 155 160 148 172 158 128 137 131 131 171 243 254 202 135 114 128 134 142 154 161 165 168 170 174 177 180 182 185 188 190 191 192 193 194 195 198 199 199 199 200 201 202 202 206 212 215 215 219 222 221 221 218 214 210 209 208 203 196 193 194 196 199 202 204 206 206 201 197 196 195 193
190 250 298 61 88 288 338 33 117 114 103 108 110 128 136 138 143 156 191 177 152 146 111 103 146 251 249 143 112 122 139 143 153 163 165 169 173 174 177 181 183 186 188 190 191 192 194 195 195 197 198 199 201 201 202 204 204 203 207 213 215 216 219 221 220 220 218 212 211 211 210 203 196 194 195 198 200 203 206 209 210 206 202 201 200 196
139 192 285 67 124 266 317 347 129 102 96 130 213 183 161 147 148 181 245 209 143 138 131 139 202 219 179 141 141 146 150 152 166 172 172 175 178 180 184 185 187 190 191 192 194 195 197 199 199 199 199 200 203 204 206 208 207 206 210 214 215 217 220 220 221 221 217 212 212 213 209 202 197 196 197 200 203 206 208 210 211 209 206 204 202 197
120 146 178 108 136 237 302 321 106 109 140 225 235 196 173 158 144 142 192 297 47 122 166 173 170 152 146 161 166 168 179 186 186 184 182 180 181 184 189 191 192 194 194 194 197 198 199 200 199 199 200 202 205 207 208 210 211 210 212 213 214 219 222 221 221 221 216 212 214 214 207 201 198 198 199 201 204 207 208 211 212 209 207 206 203 198
2 76 102 82 116 181 331 37 109 164 220 245 261 241 197 149 129 117 88 15 40 27 302 153 145 161 176 185 181 181 190 193 189 186 185 186 186 188 191 194 195 195 196 197 199 200 200 200 198 198 200 203 206 207 208 210 211 210 210 211 213 218 222 221 221 219 214 212 214 211 205 200 199 199 200 203 206 207 209 212 213 210 206 204 201 197
237 159 99 67 95 109 28 67 148 213 256 293 310 277 168 121 115 98 49 358 17 45 253 219 198 183 170 157 167 178 184 179 174 183 189 191 193 193 194 196 197 197 200 201 201 202 202 202 202 202 203 205 206 208 210 211 211 210 209 209 212 217 221 220 219 217 214 213 213 209 204 201 200 201 203 205 207 208 211 214 214 212 208 202 196 194
166 164 104 54 71 119 97 103 184 288 327 336 325 215 167 185 183 140 93 322 303 38 171 225 232 169 126 99 114 128 129 124 128 198 201 198 200 201 201 201 201 202 205 204 205 206 205 205 205 204 204 205 207 210 212 212 212 212 210 210 213 218 221 221 220 218 215 214 213 208 204 202 202 203 205 207 209 210 213 216 216 214 211 204 197 192
109 164 137 115 30 94 97 79 41 57 166 246 262 264 276 272 218 162 109 332 289 309 156 182 167 143 130 112 119 123 122 119 141 231 211 203 204 205 204 205 205 206 207 206 206 206 206 206 206 205 205 206 208 211 213 214 215 214 212 213 216 218 221 222 221 219 216 213 213 210 206 204 204 205 207 209 211 212 215 217 216 215 212 206 199 194
29 40 106 98 31 43 92 96 113 141 198 242 255 273 308 317 238 129 88 308 280 309 40 130 137 142 147 141 136 131 126 136 236 233 215 206 206 207 207 207 208 209 210 209 209 209 208 208 208 208 208 208 209 210 212 214 217 217 216 217 219 219 221 223 223 221 216 214 214 213 209 205 205 207 209 211 213 214 216 216 214 213 209 204 201 198
355 5 54 66 38 56 87 95 208 200 223 252 259 280 320 10 73 86 104 234 265 310 348 101 151 158 156 151 145 137 152 182 217 236 223 210 207 209 209 209 209 210 210 210 210 211 211 210 210 209 209 209 209 210 212 213 216 218 219 218 218 219 221 223 223 220 216 214 215 214 211 207 207 209 211 213 214 213 214 215 211 207 204 200 198 197
335 8 50 87 60 43 69 90 274 262 252 259 282 306 340 59 78 100 190 229 249 324 348 6 162 165 163 162 160 175 202 205 217 236 226 209 207 209 210 211 212 213 214 214 213 213 212 212 213 213 212 211 211 211 212 213 215 219 221 219 218 221 223 224 222 218 215 215 216 214 211 209 209 210 212 214 215 215 214 213 209 204 201 198 195 193
328 13 36 93 52 19 67 100 10 281 257 282 308 326 13 87 129 188 206 227 287 27 30 14 191 180 176 178 187 202 209 209 219 243 231 210 209 209 208 209 210 212 214 215 215 215 214 213 213 213 212 211 211 212 214 214 215 218 222 223 224 226 226 224 222 219 217 217 217 215 213 211 210 211 213 214 216 217 214 210 208 203 199 196 193 190
163 140 77 211 170 53 48 53 48 235 266 342 336 339 37 101 178 175 160 163 32 57 77 61 237 198 191 194 204 216 219 216 220 242 234 210 210 209 208 209 210 211 213 214 214 216 215 213 213 212 211 211 212 213 215 216 216 217 221 226 228 227 225 222 221 220 219 219 218 216 213 212 210 212 214 215 215 216 212 208 205 201 197 195 192 189
154 149 165 211 187 116 118 254 197 215 270 339 357 161 101 94 135 130 118 117 97 78 85 84 85 199 206 211 217 221 225 225 226 232 224 208 208 210 209 209 209 210 213 215 216 215 214 213 213 211 211 212 212 213 216 218 218 217 219 226 230 226 222 221 221 220 219 220 219 216 214 213 212 212 213 214 215 212 208 206 204 200 196 193 191 188
227 205 167 175 179 153 183 214 223 244 296 357 52 103 101 96 107 108 98 91 81 67 71 78 70 95 205 219 226 226 227 231 232 231 225 216 212 211 212 211 210 211 213 215 215 215 214 213 213 211 211 211 212 214 215 218 220 220 219 222 228 226 221 220 221 220 220 221 219 215 214 213 213 212 212 213 213 210 205 203 202 198 193 190 188 189
256 233 129 123 158 145 170 228 304 339 358 57 86 96 99 99 96 91 87 80 70 64 69 71 59 49 70 216 231 232 230 233 235 232 228 222 215 213 212 211 210 210 212 213 213 213 212 212 213 212 211 211 212 213 215 217 222 223 222 224 229 228 224 222 221 220 220 220 216 212 212 212 211 211 211 212 212 210 206 205 203 197 191 188 188 190
286 90 97 97 85 89 103 303 330 350 3 81 104 103 101 100 92 85 82 73 67 76 80 72 59 39 33 24 261 237 231 231 232 228 222 216 212 211 210 209 208 209 211 213 213 212 210 210 211 211 211 210 211 212 214 218 222 224 223 225 229 228 225 223 222 220 219 217 213 211 211 212 211 209 209 210 211 210 208 207 205 201 196 193 192 192
313 9 50 106 89 112 205 258 304 39 57 90 113 107 99 98 93 83 79 73 68 72 74 72 70 46 26 17 352 303 247 233 229 225 219 214 211 211 210 209 209 209 210 212 212 211 210 210 211 212 212 212 212 213 215 218 221 221 220 222 226 226 223 222 221 220 218 215 212 211 211 212 212 211 209 210 211 211 209 207 206 206 204 202 200 199
317 340 13 122 77 50 208 235 153 78 62 66 105 106 99 98 95 83 80 75 67 64 61 69 100 86 55 34 351 333 319 266 235 226 221 215 210 210 209 209 209 209 210 211 211 211 211 212 212 214 215 215 216 216 217 219 221 220 218 221 225 225 223 221 221 219 217 215 212 211 211 211 213 212 211 210 211 212 213 211 209 208 207 206 206 206
359 320 111 99 88 163 215 206 167 123 94 150 114 107 104 100 93 87 78 64 58 59 55 55 69 99 108 86 44 1 336 303 255 231 225 219 213 212 210 208 208 209 210 210 210 210 211 213 215 216 217 217 218 219 219 220 222 222 221 222 226 225 223 222 221 219 216 215 213 211 210 211 213 213 212 212 210 210 212 212 211 210 209 208 208 206
174 187 163 142 167 207 215 200 174 144 154 162 122 106 109 104 86 89 83 65 54 49 44 46 50 49 67 121 120 93 355 320 279 240 229 223 218 217 214 212 212 213 214 213 210 209 210 212 215 217 218 218 218 219 220 220 222 224 224 225 226 225 223 223 224 221 217 214 213 212 211 212 214 214 213 213 211 210 211 209 208 209 210 210 206 200
Height
1463 1467 1466 1460 1457 1457 1459 1462 1463 1462 1463 1466 1466 1467 1468 1470 1470 1467 1464 1462 1462 1467 1471 1473 1478 1483 1484 1485 1486 1488 1490 1492 1494 1496 1496 1496 1497 1498 1499 1501 1502 1504 1505 1505 1507 1509 1511 1513 1514 1516 1517 1518 1520 1522 1523 1524 1525 1527 1528 1530 1532 1533 1534 1535 1536 1537 1538 1539 1540 1543 1544 1545 1546 1546 1547 1549 1550 1551 1551 1552 1552 1552 1552 1551 1550 1550
1462 1464 1458 1454 1455 1457 1460 1464 1464 1463 1464 1467 1468 1468 1468 1469 1468 1464 1462 1462 1461 1465 1472 1475 1479 1483 1483 1484 1486 1486 1489 1490 1491 1493 1494 1494 1496 1497 1499 1500 1501 1503 1504 1505 1506 1508 1510 1512 1513 1515 1516 1517 1519 1521 1523 1524 1525 1527 1528 1530 1532 1533 1534 1536 1537 1537 1538 1539 1540 1542 1544 1544 1545 1546 1548 1549 1550 1551 1552 1552 1552 1552 1552 1551 1551 1550
1462 1457 1452 1454 1457 1457 1459 1462 1464 1465 1465 1468 1470 1470 1471 1470 1467 1465 1461 1461 1461 1466 1475 1478 1480 1484 1484 1484 1487 1487 1488 1490 1491 1493 1493 1494 1495 1497 1498 1499 1500 1501 1502 1503 1505 1507 1509 1511 1513 1514 1516 1517 1519 1521 1522 1524 1525 1527 1528 1530 1532 1533 1535 1536 1537 1537 1538 1539 1541 1542 1543 1544 1545 1546 1548 1549 1550 1551 1552 1552 1552 1552 1551 1551 1550 1550
1461 1453 1451 1455 1456 1457 1460 1461 1463 1466 1466 1467 1471 1473 1472 1469 1468 1468 1464 1463 1464 1467 1474 1478 1482 1485 1486 1487 1488 1488 1490 1491 1493 1494 1494 1495 1496 1497 1497 1497 1498 1498 1499 1502 1504 1506 1508 1510 1512 1513 1515 1517 1519 1521 1522 1523 1525 1526 1528 1530 1532 1533 1535 1536 1536 1537 1538 1539 1541 1542 1543 1544 1546 1547 1548 1549 1551 1551 1551 1551 1551 1551 1550 1550 1550 1549
1455 1450 1451 1453 1455 1457 1460 1461 1462 1465 1467 1466 1468 1473 1472 1468 1467 1466 1465 1465 1467 1471 1472 1477 1488 1491 1486 1488 1489 1489 1491 1492 1493 1494 1494 1496 1497 1497 1497 1497 1497 1497 1497 1499 1502 1504 1507 1509 1511 1512 1514 1516 1518 1520 1521 1523 1525 1526 1528 1530 1532 1533 1534 1535 1536 1536 1537 1538 1539 1541 1543 1544 1545 1547 1548 1550 1550 1551 1550 1551 1551 1550 1550 1549 1549 1548
1455 1450 1449 1452 1455 1456 1458 1460 1460 1462 1467 1468 1467 1468 1469 1468 1467 1465 1466 1466 1472 1481 1476 1474 1493 1498 1487 1487 1489 1489 1490 1491 1492 1493 1493 1495 1496 1497 1496 1496 1496 1497 1498 1499 1501 1503 1506 1508 1510 1511 1513 1515 1517 1519 1521 1523 1525 1526 1528 1530 1531 1533 1534 1534 1535 1536 1537 1537 1539 1540 1542 1543 1545 1546 1548 1549 1550 1550 1550 1550 1550 1550 1549 1549 1548 1548
1453 1450 1450 1451 1453 1455 1458 1460 1458 1458 1466 1470 1465 1463 1466 1467 1467 1466 1466 1467 1474 1482 1476 1470 1485 1497 1492 1486 1486 1487 1490 1490 1491 1492 1492 1492 1493 1493 1493 1494 1495 1496 1497 1499 1502 1503 1505 1507 1508 1510 1513 1515 1517 1520 1521 1523 1524 1526 1528 1529 1531 1532 1533 1534 1534 1535 1536 1537 1539 1541 1542 1544 1545 1547 1548 1549 1549 1550 1550 1549 1549 1549 1549 1548 1547 1547
1447 1449 1451 1451 1451 1454 1456 1456 1455 1456 1464 1468 1461 1460 1464 1466 1468 1467 1465 1470 1474 1475 1477 1474 1475 1488 1495 1485 1481 1485 1488 1489 1490 1489 1489 1489 1489 1491 1491 1492 1493 1494 1496 1498 1501 1503 1504 1506 1507 1510 1512 1515 1517 1519 1521 1522 1524 1526 1527 1529 1530 1531 1532 1533 1534 1535 1536 1538 1539 1541 1543 1544 1546 1547 1548 1548 1549 1549 1549 1549 1549 1548 1548 1547 1547 1546
1443 1448 1449 1450 1452 1452 1450 1450 1452 1455 1461 1462 1457 1458 1462 1463 1466 1466 1465 1470 1473 1475 1483 1481 1474 1484 1493 1483 1478 1483 1486 1488 1488 1486 1485 1485 1486 1488 1489 1490 1492 1494 1495 1497 1499 1501 1503 1506 1507 1510 1512 1514 1517 1518 1520 1522 1523 1525 1527 1528 1529 1530 1531 1532 1533 1534 1536 1538 1540 1542 1543 1544 1546 1546 1547 1547 1548 1548 1548 1548 1548 1547 1547 1546 1546 1546
1442 1444 1445 1448 1450 1448 1446 1448 1451 1455 1458 1456 1455 1457 1459 1462 1463 1464 1467 1469 1473 1478 1483 1481 1475 1481 1489 1483 1479 1483 1484 1484 1483 1481 1481 1482 1484 1485 1486 1488 1490 1493 1494 1496 1498 1500 1503 1505 1508 1510 1512 1514 1516 1517 1519 1521 1523 1525 1526 1527 1528 1529 1530 1531 1533 1535 1537 1539 1540 1542 1543 1544 1545 1545 1546 1546 1547 1547 1547 1547 1547 1547 1546 1546 1545 1545
1441 1442 1443 1443 1445 1445 1446 1448 1450 1453 1455 1454 1455 1458 1460 1463 1462 1465 1468 1469 1478 1482 1475 1473 1473 1476 1483 1480 1475 1475 1473 1472 1473 1476 1479 1479 1481 1481 1483 1486 1488 1490 1492 1494 1498 1500 1503 1505 1507 1509 1511 1513 1514 1516 1519 1520 1522 1524 1525 1526 1527 1529 1530 1531 1533 1535 1537 1539 1540 1542 1543 1544 1545 1545 1545 1545 1546 1546 1546 1547 1546 1546 1546 1545 1545 1545
1441 1442 1442 1439 1440 1443 1445 1447 1448 1450 1452 1453 1455 1459 1466 1468 1466 1469 1471 1473 1484 1481 1466 1465 1470 1475 1479 1474 1469 1467 1461 1461 1465 1469 1471 1472 1474 1477 1479 1482 1485 1487 1490 1493 1497 1500 1502 1504 1506 1508 1510 1512 1513 1515 1517 1519 1521 1522 1524 1525 1527 1528 1530 1531 1533 1535 1537 1538 1540 1541 1543 1544 1544 1544 1544 1544 1545 1546 1546 1546 1546 1546 1545 1545 1545 1545
1442 1440 1440 1439 1438 1440 1444 1448 1450 1450 1450 1453 1457 1462 1471 1476 1476 1479 1479 1478 1481 1472 1463 1463 1467 1476 1475 1463 1461 1462 1457 1456 1457 1457 1459 1463 1467 1472 1476 1479 1483 1486 1489 1491 1495 1497 1500 1501 1503 1506 1508 1510 1512 1514 1516 1518 1520 1521 1523 1525 1526 1527 1529 1530 1533 1534 1536 1538 1539 1541 1542 1543 1544 1543 1544 1544 1544 1545 1545 1545 1545 1545 1545 1545 1545 1545
1446 1441 1439 1440 1438 1436 1439 1445 1449 1448 1448 1452 1455 1460 1468 1475 1481 1485 1481 1478 1475 1466 1461 1462 1466 1475 1470 1455 1452 1453 1450 1450 1451 1452 1455 1460 1464 1468 1472 1476 1481 1485 1487 1489 1492 1495 1497 1499 1501 1504 1506 1508 1510 1512 1515 1516 1518 1520 1522 1524 1525 1527 1528 1530 1532 1534 1536 1537 1538 1540 1541 1542 1542 1542 1543 1543 1544 1545 1545 1545 1545 1545 1546 1546 1545 1545
1449 1446 1438 1436 1436 1432 1433 1438 1440 1443 1446 1449 1450 1455 1461 1462 1468 1475 1474 1473 1471 1465 1464 1467 1469 1471 1463 1453 1448 1444 1443 1447 1451 1455 1459 1463 1467 1470 1473 1477 1480 1483 1485 1487 1490 1493 1495 1497 1500 1502 1504 1507 1509 1511 1513 1515 1517 1519 1521 1523 1524 1526 1528 1529 1531 1533 1535 1537 1538 1539 1539 1540 1541 1541 1542 1543 1543 1544 1545 1545 1545 1545 1546 1546 1545 1545
1447 1444 1431 1429 1431 1429 1431 1434 1435 1440 1447 1449 1448 1452 1456 1451 1451 1460 1465 1465 1464 1463 1466 1469 1466 1460 1452 1447 1445 1442 1443 1449 1453 1457 1461 1465 1469 1471 1473 1476 1478 1480 1482 1485 1488 1490 1493 1496 1498 1501 1503 1505 1507 1509 1512 1513 1515 1517 1519 1522 1523 1525 1527 1529 1530 1532 1534 1536 1537 1538 1538 1539 1540 1541 1541 1542 1543 1544 1545 1545 1545 1546 1546 1545 1545 1544
1444 1440 1428 1427 1430 1427 1429 1432 1432 1437 1443 1446 1449 1449 1447 1442 1443 1453 1463 1466 1466 1465 1465 1466 1462 1457 1453 1448 1445 1444 1446 1450 1453 1456 1460 1463 1466 1469 1471 1473 1475 1478 1480 1483 1486 1488 1491 1494 1496 1499 1501 1504 1506 1508 1510 1512 1514 1516 1518 1520 1522 1524 1526 1528 1530 1531 1533 1535 1536 1536 1537 1538 1539 1540 1541 1542 1543 1543 1544 1545 1545 1546 1545 1545 1545 1544
1438 1437 1426 1425 1429 1427 1427 1430 1430 1432 1435 1441 1446 1443 1441 1444 1446 1451 1459 1465 1469 1468 1465 1464 1461 1460 1458 1453 1449 1448 1449 1452 1453 1455 1459 1462 1464 1466 1468 1470 1473 1476 1479 1482 1485 1487 1490 1492 1495 1497 1500 1502 1505 1507 1509 1511 1514 1516 1518 1519 1521 1523 1525 1527 1529 1531 1533 1534 1535 1536 1536 1537 1538 1539 1540 1541 1542 1543 1544 1544 1545 1545 1545 1544 1544 1544
1435 1435 1426 1421 1426 1425 1425 1429 1433 1432 1429 1434 1439 1436 1441 1451 1453 1454 1459 1463 1466 1469 1468 1465 1462 1458 1454 1452 1452 1451 1450 1451 1452 1454 1457 1459 1460 1462 1464 1468 1472 1475 1479 1481 1483 1486 1488 1490 1493 1496 1498 1501 1504 1506 1509 1511 1514 1516 1518 1519 1521 1523 1525 1527 1529 1530 1532 1533 1534 1535 1536 1537 1537 1538 1540 1541 1542 1543 1544 1544 1544 1544 1544 1544 1544 1544
1435 1437 1430 1420 1419 1423 1424 1428 1433 1433 1429 1431 1435 1435 1437 1443 1447 1449 1454 1456 1458 1465 1469 1466 1464 1457 1446 1445 1448 1444 1443 1445 1448 1451 1452 1452 1454 1457 1461 1465 1468 1472 1475 1478 1481 1484 1486 1489 1491 1494 1497 1500 1503 1506 1508 1511 1513 1515 1517 1519 1521 1523 1524 1526 1528 1530 1531 1532 1534 1535 1535 1536 1537 1538 1539 1540 1542 1543 1543 1543 1543 1543 1544 1544 1544 1545
1436 1438 1433 1422 1419 1423 1425 1423 1424 1426 1428 1433 1437 1438 1435 1436 1440 1442 1447 1451 1450 1456 1464 1466 1466 1453 1435 1435 1440 1435 1434 1438 1440 1442 1444 1446 1451 1455 1459 1462 1465 1469 1473 1475 1478 1482 1485 1488 1491 1494 1497 1499 1502 1505 1507 1510 1512 1514 1517 1518 1520 1522 1524 1525 1527 1529 1530 1532 1532 1533 1534 1535 1536 1537 1539 1540 1541 1542 1542 1542 1542 1543 1543 1544 1545 1545
1435 1436 1433 1428 1423 1423 1419 1414 1415 1419 1424 1430 1434 1436 1434 1434 1439 1446 1452 1451 1444 1448 1456 1459 1458 1444 1426 1426 1430 1429 1430 1431 1431 1434 1437 1443 1448 1452 1456 1460 1463 1467 1470 1473 1476 1480 1484 1487 1489 1492 1495 1498 1500 1503 1506 1509 1512 1514 1516 1518 1520 1522 1523 1525 1527 1528 1530 1531 1532 1533 1534 1535 1536 1537 1538 1539 1540 1541 1541 1541 1542 1543 1543 1544 1545 1546
1432 1433 1434 1432 1424 1419 1414 1411 1415 1417 1421 1427 1429 1431 1432 1432 1435 1443 1450 1447 1443 1447 1451 1452 1449 1436 1421 1421 1423 1423 1427 1427 1428 1431 1435 1440 1445 1449 1454 1458 1462 1466 1469 1473 1476 1479 1482 1485 1488 1491 1493 1496 1499 1502 1505 1507 1510 1513 1515 1517 1519 1521 1523 1524 1526 1528 1529 1530 1531 1532 1533 1534 1536 1537 1538 1539 1539 1540 1540 1541 1542 1543 1544 1545 1545 1546
1432 1433 1434 1431 1422 1416 1413 1412 1414 1415 1419 1426 1427 1427 1429 1428 1428 1431 1436 1437 1439 1443 1445 1450 1450 1434 1420 1422 1423 1423 1427 1428 1431 1434 1436 1440 1445 1449 1454 1458 1462 1467 1470 1473 1476 1478 1481 1484 1487 1490 1492 1495 1497 1500 1503 1505 1509 1512 1514 1517 1519 1520 1522 1524 1525 1527 1528 1529 1530 1531 1533 1534 1535 1536 1537 1537 1538 1539 1540 1541 1542 1543 1544 1545 1545 1546
1429 1430 1432 1434 1429 1423 1421 1421 1422 1420 1420 1422 1423 1423 1422 1422 1425 1428 1431 1433 1437 1439 1438 1443 1445 1432 1422 1424 1425 1427 1430 1432 1435 1438 1440 1443 1446 1450 1455 1458 1462 1466 1469 1472 1475 1478 1480 1483 1486 1489 1491 1494 1496 1499 1502 1504 1507 1510 1513 1516 1517 1519 1522 1523 1524 1526 1526 1528 1529 1530 1532 1533 1534 1535 1535 1536 1537 1538 1539 1541 1542 1543 1544 1545 1546 1546
1425 1428 1429 1433 1433 1431 1429 1426 1424 1421 1418 1417 1417 1417 1418 1419 1422 1427 1432 1434 1436 1441 1439 1435 1433 1428 1425 1427 1427 1428 1432 1433 1436 1439 1441 1444 1447 1449 1453 1457 1461 1465 1468 1471 1473 1476 1479 1482 1485 1487 1489 1492 1495 1498 1501 1504 1507 1510 1512 1515 1516 1518 1520 1522 1523 1524 1525 1527 1528 1529 1531 1532 1533 1534 1534 1535 1536 1538 1539 1541 1542 1543 1544 1545 1546 1547
1425 1426 1425 1424 1424 1422 1417 1413 1413 1413 1413 1414 1414 1414 1416 1417 1419 1424 1430 1431 1430 1437 1438 1430 1426 1425 1424 1428 1429 1428 1430 1432 1434 1437 1439 1442 1446 1449 1453 1456 1459 1463 1466 1469 1472 1475 1478 1481 1484 1486 1488 1491 1494 1497 1500 1503 1506 1509 1511 1513 1515 1517 1519 1520 1522 1523 1524 1525 1527 1529 1530 1531 1532 1533 1534 1535 1536 1538 1540 1541 1542 1543 1544 1546 1546 1547
1428 1427 1422 1419 1416 1412 1407 1404 1407 1409 1409 1411 1413 1414 1413 1415 1419 1423 1425 1424 1426 1432 1433 1429 1429 1424 1420 1425 1428 1425 1427 1430 1432 1434 1436 1440 1444 1448 1453 1457 1459 1463 1465 1469 1472 1474 1477 1480 1482 1484 1486 1488 1492 1496 1499 1502 1504 1507 1510 1512 1513 1515 1517 1519 1520 1521 1523 1524 1526 1528 1529 1531 1532 1533 1534 1535 1537 1538 1540 1541 1542 1543 1544 1545 1546 1547
1427 1424 1417 1414 1411 1408 1406 1404 1402 1404 1406 1407 1409 1411 1411 1413 1417 1417 1416 1420 1422 1422 1422 1424 1428 1422 1416 1421 1424 1420 1421 1423 1426 1431 1434 1439 1444 1448 1453 1457 1459 1462 1465 1467 1471 1473 1475 1478 1480 1482 1485 1487 1490 1493 1497 1500 1503 1505 1508 1510 1512 1514 1515 1517 1518 1520 1522 1523 1525 1527 1529 1530 1531 1532 1533 1535 1537 1538 1539 1541 1542 1543 1544 1545 1546 1547
1422 1417 1412 1412 1409 1406 1407 1405 1400 1400 1404 1405 1405 1407 1408 1412 1414 1412 1413 1419 1419 1417 1417 1421 1424 1420 1415 1418 1419 1417 1419 1422 1426 1431 1435 1439 1443 1447 1451 1454 1456 1460 1462 1464 1467 1470 1473 1476 1478 1481 1483 1485 1488 1491 1494 1497 1500 1503 1506 1508 1510 1512 1514 1515 1517 1519 1521 1522 1524 1526 1528 1529 1530 1531 1533 1535 1536 1537 1539 1540 1542 1543 1544 1545 1546 1547
1418 1414 1412 1412 1409 1407 1406 1403 1400 1399 1402 1406 1408 1408 1408 1411 1414 1414 1416 1420 1419 1420 1424 1425 1426 1423 1417 1417 1420 1420 1422 1425 1429 1432 1434 1437 1441 1444 1448 1452 1454 1457 1460 1463 1466 1469 1473 1476 1478 1480 1482 1484 1486 1489 1492 1495 1498 1501 1504 1507 1509 1510 1512 1514 1516 1518 1519 1521 1523 1525 1526 1528 1529 1531 1533 1534 1536 1537 1538 1540 1541 1543 1544 1545 1546 1547
1414 1414 1412 1411 1410 1410 1407 1406 1404 1400 1401 1407 1411 1410 1408 1408 1411 1412 1413 1415 1414 1417 1424 1427 1425 1420 1416 1416 1420 1422 1423 1425 1428 1431 1434 1437 1440 1442 1446 1449 1452 1455 1458 1461 1465 1468 1472 1474 1476 1478 1480 1482 1485 1488 1491 1494 1497 1499 1502 1505 1507 1509 1511 1513 1514 1516 1518 1520 1522 1523 1525 1527 1528 1530 1532 1533 1535 1536 1538 1540 1541 1542 1544 1545 1546 1547
1411 1411 1410 1412 1413 1411 1411 1410 1404 1400 1406 1412 1410 1407 1406 1407 1409 1409 1409 1412 1413 1414 1418 1419 1414 1412 1414 1416 1419 1423 1425 1425 1426 1428 1430 1434 1438 1441 1443 1445 1448 1452 1454 1458 1462 1465 1468 1470 1473 1476 1478 1481 1483 1486 1489 1493 1495 1498 1501 1504 1506 1507 1509 1511 1513 1515 1516 1518 1520 1522 1524 1526 1527 1529 1531 1533 1534 1536 1537 1539 1541 1542 1544 1545 1546 1547
1411 1408 1409 1414 1412 1408 1412 1410 1403 1407 1416 1415 1410 1407 1405 1404 1405 1407 1411 1414 1415 1415 1414 1411 1409 1411 1415 1415 1415 1419 1420 1419 1420 1422 1424 1429 1433 1437 1441 1443 1446 1450 1453 1457 1460 1462 1466 1469 1472 1476 1478 1480 1482 1485 1488 1491 1494 1497 1500 1502 1504 1505 1507 1509 1511 1513 1514 1516 1518 1520 1522 1524 1526 1528 1530 1532 1534 1535 1537 1539 1541 1542 1543 1545 1546 1547
1410 1407 1410 1415 1412 1409 1411 1408 1409 1418 1419 1410 1408 1410 1408 1406 1405 1408 1413 1416 1415 1415 1413 1409 1408 1410 1412 1412 1412 1413 1414 1414 1418 1422 1425 1427 1430 1432 1437 1441 1445 1449 1453 1456 1459 1462 1466 1469 1471 1474 1477 1479 1482 1484 1487 1490 1492 1495 1497 1499 1501 1503 1505 1507 1509 1511 1513 1515 1517 1519 1521 1523 1525 1527 1529 1531 1533 1535 1536 1538 1540 1542 1543 1545 1546 1547
1409 1407 1409 1415 1415 1412 1411 1410 1414 1420 1414 1406 1407 1410 1408 1409 1407 1406 1412 1415 1413 1414 1413 1409 1407 1409 1411 1414 1415 1416 1418 1421 1424 1426 1428 1430 1431 1432 1434 1436 1440 1445 1448 1451 1454 1458 1461 1464 1467 1470 1473 1477 1480 1483 1486 1488 1491 1493 1495 1497 1499 1501 1503 1505 1507 1509 1511 1513 1515 1517 1519 1521 1523 1526 1528 1530 1532 1534 1536 1537 1540 1542 1543 1544 1545 1546
1409 1407 1407 1412 1416 1415 1415 1415 1416 1417 1415 1409 1407 1406 1405 1406 1403 1402 1409 1415 1413 1412 1413 1410 1409 1412 1414 1416 1419 1420 1422 1426 1429 1430 1429 1430 1432 1433 1434 1436 1439 1442 1445 1448 1452 1455 1459 1462 1465 1469 1472 1475 1478 1481 1484 1487 1489 1491 1494 1496 1498 1500 1501 1503 1505 1506 1508 1510 1512 1514 1517 1519 1522 1524 1527 1529 1531 1533 1535 1537 1539 1541 1542 1544 1545 1546
1408 1406 1405 1410 1416 1416 1415 1416 1418 1421 1420 1413 1406 1403 1402 1403 1402 1399 1404 1413 1413 1411 1412 1411 1410 1415 1416 1417 1420 1422 1424 1430 1433 1429 1426 1429 1431 1434 1437 1439 1442 1444 1447 1450 1453 1456 1460 1463 1466 1469 1472 1474 1477 1479 1482 1485 1488 1490 1492 1494 1496 1497 1499 1500 1502 1504 1506 1508 1510 1513 1516 1518 1521 1523 1526 1528 1530 1533 1534 1536 1539 1541 1542 1544 1545 1546
1407 1407 1405 1407 1414 1415 1412 1416 1422 1422 1418 1411 1405 1403 1402 1403 1402 1399 1406 1417 1414 1409 1411 1411 1411 1415 1416 1416 1419 1421 1425 1434 1433 1423 1421 1425 1429 1431 1435 1438 1441 1445 1448 1450 1453 1455 1458 1461 1465 1468 1471 1473 1475 1477 1481 1483 1486 1488 1490 1492 1494 1495 1496 1497 1500 1501 1503 1506 1509 1513 1515 1518 1520 1523 1525 1527 1530 1532 1534 1536 1538 1540 1542 1543 1545 1546
1408 1407 1406 1409 1415 1418 1416 1418 1422 1418 1412 1408 1405 1404 1404 1403 1400 1404 1417 1424 1415 1407 1410 1410 1411 1415 1416 1417 1419 1420 1423 1427 1424 1418 1418 1423 1426 1429 1432 1435 1438 1442 1445 1448 1452 1455 1457 1460 1463 1465 1468 1470 1473 1476 1479 1482 1484 1486 1488 1489 1491 1492 1494 1496 1498 1500 1502 1505 1509 1512 1515 1517 1519 1522 1524 1527 1529 1532 1534 1536 1538 1540 1541 1543 1544 1545
1412 1411 1415 1416 1416 1417 1417 1417 1419 1416 1409 1406 1405 1404 1403 1402 1403 1413 1421 1419 1412 1410 1410 1409 1411 1414 1415 1417 1419 1419 1417 1417 1416 1416 1418 1421 1425 1428 1431 1434 1438 1441 1444 1447 1450 1453 1456 1458 1460 1463 1465 1468 1471 1474 1477 1479 1482 1484 1486 1487 1489 1491 1493 1495 1497 1499 1502 1505 1508 1511 1514 1516 1519 1521 1524 1527 1529 1531 1533 1535 1537 1539 1541 1542 1543 1544
1416 1416 1421 1420 1417 1421 1421 1419 1420 1417 1408 1405 1405 1402 1400 1403 1410 1417 1416 1412 1411 1412 1411 1410 1411 1413 1414 1415 1416 1415 1414 1415 1416 1417 1418 1420 1423 1425 1429 1433 1437 1440 1443 1446 1448 1451 1453 1456 1459 1462 1465 1467 1469 1472 1475 1477 1480 1482 1484 1486 1488 1490 1492 1494 1496 1499 1502 1505 1508 1510 1513 1515 1518 1521 1523 1526 1528 1530 1532 1534 1536 1539 1540 1541 1543 1544
1415 1417 1421 1421 1422 1427 1427 1423 1422 1418 1409 1404 1404 1402 1402 1406 1411 1413 1412 1412 1413 1413 1412 1412 1412 1412 1414 1414 1414 1413 1414 1416 1418 1418 1419 1421 1422 1424 1427 1430 1433 1436 1440 1443 1446 1448 1451 1453 1457 1460 1463 1466 1468 1470 1473 1475 1478 1480 1483 1485 1487 1489 1490 1493 1496 1499 1502 1505 1507 1510 1512 1515 1517 1520 1522 1525 1527 1529 1531 1533 1535 1537 1539 1541 1542 1543
1416 1416 1418 1420 1421 1424 1424 1422 1420 1415 1409 1406 1405 1405 1406 1408 1409 1410 1411 1413 1413 1413 1414 1414 1413 1413 1414 1413 1413 1415 1415 1417 1418 1418 1419 1421 1422 1424 1426 1428 1432 1435 1438 1441 1444 1447 1449 1452 1455 1458 1461 1463 1465 1468 1471 1474 1476 1478 1481 1484 1486 1487 1489 1492 1495 1498 1501 1504 1506 1509 1512 1515 1517 1519 1521 1524 1526 1528 1530 1532 1534 1536 1538 1540 1541 1542
1416 1414 1414 1416 1418 1419 1418 1418 1415 1412 1410 1408 1407 1407 1408 1408 1409 1411 1411 1411 1412 1413 1413 1414 1414 1414 1415 1415 1415 1416 1416 1417 1418 1418 1419 1420 1421 1423 1425 1427 1430 1433 1436 1439 1442 1445 1448 1451 1454 1457 1459 1461 1464 1466 1469 1473 1475 1476 1480 1483 1484 1485 1487 1490 1493 1496 1499 1501 1504 1507 1511 1514 1516 1518 1520 1523 1525 1527 1529 1531 1533 1535 1537 1538 1540 1541
1415 1414 1413 1414 1416 1418 1417 1415 1414 1413 1411 1410 1409 1409 1410 1410 1411 1412 1411 1411 1412 1412 1413 1414 1415 1415 1416 1417 1417 1417 1417 1418 1419 1420 1421 1421 1422 1423 1424 1426 1429 1432 1435 1438 1441 1444 1448 1451 1454 1456 1458 1460 1463 1465 1468 1471 1473 1475 1479 1481 1482 1484 1486 1488 1491 1495 1497 1499 1502 1505 1508 1512 1515 1517 1519 1522 1524 1526 1528 1530 1532 1534 1536 1537 1539 1540
1414 1413 1413 1414 1415 1418 1418 1416 1415 1414 1413 1412 1412 1412 1412 1412 1412 1412 1412 1412 1412 1413 1414 1415 1416 1417 1417 1418 1418 1418 1418 1418 1419 1420 1421 1421 1422 1423 1424 1426 1429 1432 1434 1437 1439 1443 1446 1449 1452 1454 1456 1459 1462 1464 1467 1471 1473 1475 1478 1480 1481 1482 1484 1487 1490 1493 1495 1497 1500 1504 1507 1510 1513 1515 1518 1520 1522 1525 1527 1529 1531 1533 1535 1536 1538 1539
1414 1412 1413 1415 1416 1417 1418 1417 1415 1414 1413 1413 1413 1413 1413 1413 1413 1413 1413 1413 1414 1414 1415 1416 1417 1418 1418 1418 1419 1419 1418 1418 1419 1419 1420 1421 1422 1423 1424 1427 1429 1431 1434 1437 1439 1443 1445 1448 1450 1453 1455 1458 1461 1464 1467 1470 1472 1474 1476 1478 1479 1481 1483 1486 1489 1491 1493 1496 1499 1502 1505 1508 1511 1513 1516 1518 1520 1523 1525 1527 1530 1532 1533 1535 1536 1538
1414 1413 1414 1416 1416 1417 1417 1417 1415 1415 1414 1413 1413 1413 1413 1413 1413 1413 1413 1414 1414 1415 1416 1417 1418 1419 1419 1420 1420 1419 1419 1419 1419 1419 1420 1421 1422 1423 1425 1427 1429 1432 1434 1436 1439 1442 1444 1447 1450 1452 1455 1457 1460 1463 1465 1468 1471 1472 1474 1476 1478 1480 1482 1485 1488 1490 1492 1494 1497 1499 1502 1506 1509 1511 1513 1516 1519 1521 1524 1526 1528 1530 1532 1534 1536 1538
1414 1414 1415 1416 1416 1416 1416 1415 1414 1415 1415 1414 1413 1413 1413 1414 1414 1414 1414 1414 1415 1416 1417 1418 1418 1419 1420 1420 1420 1420 1420 1420 1420 1421 1422 1422 1423 1424 1426 1428 1430 1432 1434 1437 1440 1442 1445 1447 1450 1452 1454 1457 1459 1462 1464 1467 1469 1470 1473 1475 1477 1478 1481 1484 1486 1488 1490 1492 1494 1497 1500 1503 1507 1509 1512 1514 1516 1519 1522 1525 1528 1530 1532 1534 1536 1537
1413 1413 1414 1414 1413 1412 1411 1411 1412 1413 1414 1414 1413 1413 1414 1414 1415 1414 1414 1415 1416 1416 1417 1418 1419 1419 1420 1421 1421 1421 1421 1421 1421 1422 1422 1423 1424 1425 1427 1429 1431 1433 1435 1437 1440 1442 1445 1447 1450 1452 1454 1456 1458 1461 1463 1466 1468 1469 1471 1473 1474 1477 1480 1483 1484 1486 1488 1490 1493 1496 1499 1502 1505 1508 1510 1512 1515 1517 1520 1523 1525 1528 1530 1532 1534 1535